• en France
  • Liste des pays
  • À 7 jours
  • Température de l'eau
  • Carte satellitaire
  • Carte météo
  • Widgets météo
  • user-avatar
    Se connecter

    Météo par heure à Mayrhofen

    Ce jour, 17 Octobre, Mercredi

    Heure Température Précipitation Vent Pression Humidité
    00:00 +5°C° 0 mm 1 m/s 619 mmHg 85%
    01:00 +4°C° 0 mm 2 m/s 619 mmHg 85%
    02:00 +5°C° 0 mm 1 m/s 619 mmHg 86%
    03:00 +4°C° 0 mm 1 m/s 618 mmHg 86%
    04:00 +4°C° 0 mm 1 m/s 618 mmHg 87%
    05:00 +4°C° 0 mm 1 m/s 618 mmHg 86%
    06:00 +4°C° 0 mm 1 m/s 618 mmHg 86%
    07:00 +5°C° 0 mm 1 m/s 618 mmHg 83%
    08:00 +7°C° 0 mm 1 m/s 619 mmHg 73%
    09:00 +10°C° 0 mm 1 m/s 620 mmHg 63%
    10:00 +12°C° 0 mm 1 m/s 621 mmHg 53%
    11:00 +13°C° 0 mm 1 m/s 621 mmHg 50%
    12:00 +14°C° 0 mm 1 m/s 621 mmHg 48%
    13:00 +14°C° 0 mm 1 m/s 621 mmHg 45%
    14:00 +14°C° 0 mm 1 m/s 621 mmHg 49%
    15:00 +13°C° 0 mm 1 m/s 620 mmHg 53%
    16:00 +13°C° 0 mm 1 m/s 620 mmHg 57%
    17:00 +10°C° 0 mm 1 m/s 619 mmHg 68%
    18:00 +8°C° 0 mm 1 m/s 618 mmHg 79%
    19:00 +5°C° 0 mm 1 m/s 618 mmHg 90%
    20:00 +5°C° 0 mm 1 m/s 618 mmHg 89%
    21:00 +5°C° 0 mm 1 m/s 618 mmHg 89%
    22:00 +5°C° 0 mm 1 m/s 618 mmHg 89%
    23:00 +5°C° 0 mm 1 m/s 618 mmHg 88%

    Demain, 18 Octobre, Jeudi

    Heure Température Précipitation Vent Pression Humidité
    00:00 +5°C° 0 mm 1 m/s 618 mmHg 88%
    01:00 +5°C° 0 mm 1 m/s 618 mmHg 87%
    02:00 +4°C° 0 mm 1 m/s 617 mmHg 87%
    03:00 +4°C° 0 mm 1 m/s 617 mmHg 87%
    04:00 +4°C° 0 mm 1 m/s 617 mmHg 87%
    05:00 +4°C° 0 mm 1 m/s 617 mmHg 87%
    06:00 +4°C° 0 mm 1 m/s 617 mmHg 86%
    07:00 +4°C° 0 mm 1 m/s 617 mmHg 86%
    08:00 +7°C° 0 mm 1 m/s 618 mmHg 77%
    09:00 +9°C° 0 mm 1 m/s 619 mmHg 68%
    10:00 +12°C° 0 mm 1 m/s 620 mmHg 58%
    11:00 +12°C° 0 mm 1 m/s 620 mmHg 56%
    12:00 +13°C° 0 mm 1 m/s 620 mmHg 54%
    13:00 +14°C° 0 mm 1 m/s 620 mmHg 52%
    14:00 +13°C° 0 mm 1 m/s 620 mmHg 57%
    15:00 +12°C° 0 mm 2 m/s 620 mmHg 61%
    16:00 +12°C° 0 mm 2 m/s 619 mmHg 66%
    17:00 +10°C° 0 mm 1 m/s 619 mmHg 75%
    18:00 +8°C° 0 mm 1 m/s 618 mmHg 84%
    19:00 +5°C° 0 mm 1 m/s 618 mmHg 93%
    20:00 +5°C° 0 mm 1 m/s 618 mmHg 94%
    21:00 +5°C° 0 mm 1 m/s 618 mmHg 94%
    22:00 +5°C° 0 mm 1 m/s 618 mmHg 95%
    23:00 +5°C° 0 mm 1 m/s 618 mmHg 95%

    Après-demain, 19 Octobre, Vendredi

    Heure Température Précipitation Vent Pression Humidité
    00:00 +4°C° 0 mm 1 m/s 618 mmHg 94%
    01:00 +4°C° 0 mm 1 m/s 618 mmHg 94%
    02:00 +4°C° 0 mm 1 m/s 618 mmHg 93%
    03:00 +4°C° 0 mm 1 m/s 618 mmHg 92%
    04:00 +2°C° 0 mm 0 m/s 618 mmHg 90%
    05:00 +3°C° 0 mm 1 m/s 618 mmHg 89%
    06:00 +3°C° 0 mm 1 m/s 618 mmHg 88%
    07:00 +3°C° 0 mm 1 m/s 618 mmHg 86%
    08:00 +6°C° 0 mm 1 m/s 619 mmHg 73%
    09:00 +9°C° 0 mm 1 m/s 620 mmHg 60%
    10:00 +12°C° 0 mm 1 m/s 622 mmHg 47%
    11:00 +12°C° 0 mm 1 m/s 622 mmHg 44%
    12:00 +13°C° 0 mm 1 m/s 622 mmHg 42%
    13:00 +14°C° 0 mm 1 m/s 622 mmHg 39%
    14:00 +13°C° 0 mm 1 m/s 622 mmHg 45%
    15:00 +13°C° 0 mm 1 m/s 622 mmHg 51%
    16:00 +12°C° 0 mm 2 m/s 622 mmHg 57%
    17:00 +10°C° 0 mm 1 m/s 621 mmHg 68%
    18:00 +7°C° 0 mm 1 m/s 620 mmHg 79%
    19:00 +5°C° 0 mm 1 m/s 620 mmHg 89%
    20:00 +4°C° 0 mm 1 m/s 620 mmHg 90%
    21:00 +4°C° 0 mm 1 m/s 620 mmHg 90%
    22:00 +3°C° 0 mm 0 m/s 620 mmHg 91%
    23:00 +3°C° 0 mm 0 m/s 620 mmHg 90%

    20 Octobre, Samedi

    Heure Température Précipitation Vent Pression Humidité
    00:00 +3°C° 0 mm 0 m/s 620 mmHg 89%
    01:00 +2°C° 0 mm 0 m/s 620 mmHg 88%
    02:00 +2°C° 0 mm 0 m/s 620 mmHg 87%
    03:00 +3°C° 0 mm 1 m/s 620 mmHg 87%
    04:00 +3°C° 0 mm 1 m/s 620 mmHg 86%
    05:00 +3°C° 0 mm 1 m/s 621 mmHg 85%
    06:00 +3°C° 0 mm 1 m/s 621 mmHg 84%
    07:00 +3°C° 0 mm 1 m/s 621 mmHg 83%
    08:00 +6°C° 0 mm 1 m/s 622 mmHg 72%
    09:00 +8°C° 0 mm 1 m/s 623 mmHg 61%
    10:00 +11°C° 0 mm 1 m/s 625 mmHg 51%
    11:00 +12°C° 0 mm 1 m/s 625 mmHg 47%
    12:00 +12°C° 0 mm 2 m/s 625 mmHg 44%
    13:00 +13°C° 0 mm 2 m/s 625 mmHg 40%
    14:00 +12°C° 0 mm 2 m/s 625 mmHg 46%
    15:00 +10°C° 0 mm 2 m/s 625 mmHg 52%
    16:00 +10°C° 0 mm 2 m/s 624 mmHg 57%
    17:00 +7°C° 0 mm 2 m/s 624 mmHg 68%
    18:00 +6°C° 0 mm 1 m/s 623 mmHg 79%
    19:00 +4°C° 0 mm 1 m/s 622 mmHg 90%
    20:00 +4°C° 0 mm 1 m/s 623 mmHg 90%
    21:00 +3°C° 0 mm 1 m/s 623 mmHg 90%
    22:00 +3°C° 0 mm 1 m/s 623 mmHg 91%
    23:00 +3°C° 0 mm 1 m/s 623 mmHg 88%

    21 Octobre, Dimanche

    Heure Température Précipitation Vent Pression Humidité
    00:00 +2°C° 0 mm 1 m/s 622 mmHg 86%
    01:00 +2°C° 0 mm 1 m/s 622 mmHg 84%
    02:00 +2°C° 0 mm 1 m/s 622 mmHg 79%
    03:00 +2°C° 0 mm 1 m/s 622 mmHg 74%
    04:00 +1°C° 0 mm 1 m/s 622 mmHg 70%
    05:00 +1°C° 0 mm 1 m/s 622 mmHg 65%
    06:00 +1°C° 0 mm 1 m/s 622 mmHg 60%
    07:00 +1°C° 0 mm 1 m/s 622 mmHg 56%
    08:00 +5°C° 0 mm 1 m/s 623 mmHg 47%
    09:00 +8°C° 0 mm 1 m/s 624 mmHg 38%
    10:00 +11°C° 0 mm 1 m/s 625 mmHg 29%
    11:00 +12°C° 0 mm 1 m/s 625 mmHg 28%
    12:00 +13°C° 0 mm 1 m/s 625 mmHg 27%
    13:00 +14°C° 0 mm 1 m/s 625 mmHg 26%
    14:00 +13°C° 0 mm 1 m/s 625 mmHg 33%
    15:00 +12°C° 0 mm 1 m/s 624 mmHg 41%
    16:00 +10°C° 0 mm 2 m/s 624 mmHg 48%
    17:00 +9°C° 0 mm 1 m/s 623 mmHg 57%
    18:00 +6°C° 0 mm 1 m/s 622 mmHg 66%
    19:00 +4°C° 0 mm 1 m/s 621 mmHg 75%
    20:00 +4°C° 0 mm 1 m/s 621 mmHg 72%
    21:00 +4°C° 0 mm 1 m/s 621 mmHg 69%
    22:00 +4°C° 0 mm 1 m/s 621 mmHg 66%
    23:00 +4°C° 0 mm 1 m/s 621 mmHg 63%

    22 Octobre, Lundi

    Heure Température Précipitation Vent Pression Humidité
    00:00 +3°C° 0 mm 2 m/s 621 mmHg 60%
    01:00 +2°C° 0 mm 2 m/s 621 mmHg 56%
    02:00 +2°C° 0 mm 2 m/s 621 mmHg 55%
    03:00 +2°C° 0 mm 2 m/s 621 mmHg 54%
    04:00 +2°C° 0 mm 2 m/s 621 mmHg 53%
    05:00 +2°C° 0 mm 2 m/s 621 mmHg 53%
    06:00 +2°C° 0 mm 2 m/s 621 mmHg 52%
    07:00 +2°C° 0 mm 2 m/s 621 mmHg 52%
    08:00 +4°C° 0 mm 2 m/s 622 mmHg 46%
    09:00 +7°C° 0 mm 2 m/s 623 mmHg 41%
    10:00 +9°C° 0 mm 2 m/s 624 mmHg 36%
    11:00 +10°C° 0 mm 2 m/s 624 mmHg 35%
    12:00 +10°C° 0 mm 2 m/s 624 mmHg 35%
    13:00 +11°C° 0 mm 3 m/s 624 mmHg 34%
    14:00 +10°C° 0 mm 2 m/s 623 mmHg 40%
    15:00 +9°C° 0 mm 2 m/s 623 mmHg 46%
    16:00 +8°C° 0 mm 2 m/s 622 mmHg 52%
    17:00 +6°C° 0 mm 2 m/s 622 mmHg 62%
    18:00 +4°C° 0 mm 2 m/s 621 mmHg 72%
    19:00 +2°C° 0 mm 1 m/s 621 mmHg 82%
    20:00 +2°C° 0 mm 1 m/s 621 mmHg 82%
    21:00 +2°C° 0 mm 1 m/s 621 mmHg 82%
    22:00 +1°C° 0 mm 1 m/s 621 mmHg 82%
    23:00 +1°C° 0 mm 1 m/s 621 mmHg 81%
    Voir plus